Wind_Speed
55 60 71 76 66 57 49 42 42 44 47 54 63 74 85 87 90 94 99 98 94 92 87 83 84 83 80 78 72 70 67 60 58 56 52 50 48 45 44 41 40 38 40 42 42
57 62 71 77 74 62 50 43 39 37 41 48 54 63 76 89 93 93 90 97 98 94 91 88 84 85 83 78 76 72 68 63 63 59 52 51 50 48 45 43 40 40 40 42 42
59 66 73 79 82 67 55 46 39 34 35 42 49 54 62 75 91 91 89 91 98 98 94 91 87 84 84 81 77 72 64 68 65 59 56 53 50 48 47 45 42 41 40 41 41
61 69 76 83 86 75 58 51 42 32 27 32 41 47 54 60 72 84 93 91 95 99 97 94 91 87 81 81 78 73 69 70 65 63 59 55 51 50 48 47 45 42 40 42 43
64 71 77 83 89 82 65 56 46 34 26 25 30 37 46 51 57 69 86 96 95 100 100 98 93 91 85 82 82 75 71 69 66 63 61 57 54 51 49 47 44 42 41 43 42
64 72 77 83 91 89 72 60 51 40 29 23 21 27 36 42 47 59 75 92 96 98 102 100 97 93 88 83 79 78 72 68 68 65 61 58 55 53 51 48 46 43 42 44 41
63 71 75 82 89 96 81 69 56 45 32 22 18 18 25 34 41 51 64 82 98 100 101 99 98 95 90 85 83 80 72 70 69 65 63 60 56 53 51 48 46 42 38 39 39
62 69 74 81 88 96 91 79 66 54 40 26 17 12 17 25 36 45 57 74 93 102 102 99 98 95 93 86 82 77 79 74 69 66 63 60 55 52 50 48 46 41 36 39 40
60 66 73 78 85 92 98 88 74 63 49 33 20 11 11 19 30 39 51 67 85 104 101 100 98 97 93 90 86 81 76 74 70 67 63 60 57 51 50 48 48 44 41 42 41
58 64 69 75 82 87 94 97 84 73 57 37 24 13 6 14 24 34 44 60 79 100 102 101 97 98 96 93 85 76 75 77 72 67 65 62 57 53 52 51 50 47 43 42 42
57 63 67 73 78 84 90 95 92 83 66 47 32 20 10 8 19 30 40 54 72 92 104 102 98 98 97 93 92 86 82 79 77 69 67 62 59 56 53 51 49 48 46 44 45
55 61 64 70 75 79 84 90 94 88 77 56 43 30 16 7 13 25 35 46 63 84 101 106 100 99 98 94 89 85 80 75 73 71 67 66 60 58 52 50 49 50 49 47 45
52 58 62 67 71 75 80 85 89 91 83 68 51 40 27 14 7 16 30 40 55 74 93 104 101 97 97 96 91 87 82 79 72 75 71 65 65 59 53 50 47 47 47 46 47
53 55 59 65 66 71 75 80 84 87 84 77 65 51 36 24 11 8 21 34 46 64 84 99 100 95 95 95 90 87 84 77 71 76 71 68 62 60 55 52 48 47 47 48 49
48 52 54 61 62 65 70 74 79 82 83 81 73 62 48 34 22 11 5 25 36 51 71 89 100 96 93 91 88 87 82 75 76 77 71 68 66 63 55 51 51 50 53 55 55
47 48 54 58 58 62 64 70 72 76 80 82 77 69 58 45 32 21 7 8 23 37 54 76 91 94 90 90 88 84 81 77 74 72 70 70 66 65 57 57 55 54 52 52 52
47 45 49 54 56 58 62 64 67 69 74 78 79 72 64 54 45 30 19 5 9 23 42 60 79 90 91 86 87 85 81 78 74 68 61 66 66 64 57 60 58 57 56 55 54
46 41 43 49 52 56 58 60 61 65 68 71 75 75 69 60 52 44 30 16 4 13 27 47 66 82 90 85 83 82 79 75 70 63 57 62 61 62 62 64 62 61 59 58 58
43 41 40 44 47 52 54 55 58 59 60 64 67 71 72 66 58 50 42 31 15 7 18 36 54 70 84 85 80 79 77 73 69 62 59 57 64 68 66 66 65 64 63 63 62
43 43 39 39 43 47 52 53 53 56 55 54 59 62 66 69 64 55 48 39 29 14 9 27 43 60 75 83 77 75 77 72 68 62 59 53 59 67 68 68 67 66 65 64 63
41 43 42 38 38 43 44 48 50 52 51 49 49 54 57 62 63 59 51 44 36 25 11 15 33 51 67 79 75 71 73 70 67 63 60 57 54 62 68 70 69 68 67 66 66
42 39 37 40 38 38 38 43 45 48 48 45 44 43 48 49 54 56 53 45 38 30 19 6 20 39 59 71 72 67 69 69 65 62 59 60 56 57 60 66 69 69 68 68 69
40 36 35 36 39 40 38 40 39 43 42 42 39 37 37 42 42 46 48 46 39 33 24 11 9 27 50 65 68 64 63 65 63 61 59 55 58 59 58 59 63 68 70 71 72
41 40 36 37 40 39 39 38 40 38 38 36 35 32 31 30 33 34 37 40 39 32 26 18 7 15 35 56 63 58 56 58 58 57 60 56 57 60 58 58 60 66 71 74 77
40 38 38 38 39 36 35 35 38 35 30 34 31 27 26 26 24 27 26 28 30 32 27 18 11 6 25 46 58 55 52 54 56 57 55 62 60 58 60 59 60 64 69 74 78
41 40 35 38 37 38 39 36 38 35 33 30 29 27 24 21 21 19 21 18 18 19 21 22 12 7 15 29 48 53 52 51 52 54 58 58 62 60 61 61 61 62 65 67 70
41 42 39 39 39 41 37 36 36 35 34 33 30 31 25 24 18 18 18 16 12 9 6 9 9 10 5 14 29 41 48 51 53 56 58 58 62 63 63 65 65 65 64 61 57
Wind_Direction
348 350 351 350 340 332 325 315 300 285 270 260 249 242 238 237 234 232 229 228 226 225 224 224 225 226 226 226 227 229 229 231 233 235 236 235 236 238 237 240 241 243 245 244 246
351 353 355 356 350 343 337 330 316 295 275 263 251 243 237 234 233 231 228 227 225 224 222 223 224 225 225 224 226 227 229 231 231 231 236 236 236 237 237 237 237 240 241 244 247
354 356 357 358 357 351 345 339 330 309 284 264 254 246 241 236 233 231 228 225 224 223 221 220 221 224 223 224 224 225 226 227 229 230 233 235 236 236 235 234 234 237 238 243 245
356 357 359 3 1 357 353 347 341 324 297 273 258 251 244 239 233 228 225 224 221 221 220 219 219 221 222 221 222 222 222 226 228 231 232 234 235 233 233 234 235 237 236 241 241
359 359 0 4 6 3 360 356 351 338 320 290 265 254 245 241 233 223 220 219 218 217 219 218 218 219 219 219 219 220 220 223 225 228 229 230 231 232 232 234 234 239 238 242 246
359 0 2 4 8 8 5 4 358 352 339 314 284 259 244 237 229 218 216 214 214 215 215 216 216 217 218 219 218 216 218 220 223 224 226 224 225 228 230 231 233 237 240 245 251
359 359 3 3 9 9 9 7 6 4 353 335 304 270 248 235 225 215 212 211 210 212 213 214 215 215 216 218 218 217 215 218 220 222 223 222 224 228 230 235 236 238 241 247 249
1 360 4 6 9 12 12 13 10 10 6 355 331 292 251 235 222 216 210 208 207 209 210 211 212 214 214 215 217 215 214 216 219 222 221 222 223 225 229 231 235 233 237 242 246
2 3 4 7 10 14 14 16 15 14 11 6 352 323 248 234 223 216 210 206 205 207 208 209 210 211 213 214 214 215 214 215 217 219 221 222 224 225 230 231 234 232 235 240 243
4 6 4 7 10 13 15 16 18 18 14 12 10 357 278 237 227 216 210 207 204 204 207 208 208 209 211 213 214 214 214 214 215 217 219 221 224 225 229 230 231 231 234 242 245
4 6 6 6 9 12 17 17 19 20 18 18 14 12 347 252 221 218 210 206 204 203 205 207 207 208 210 211 211 211 212 213 213 216 218 219 220 223 226 230 230 231 235 241 245
3 4 6 6 7 11 16 19 20 22 21 21 23 19 10 321 231 218 212 207 206 204 204 206 208 207 209 210 211 212 213 214 212 216 217 219 220 223 225 230 231 233 235 240 245
2 4 4 7 7 8 13 19 21 23 23 23 25 27 23 7 263 228 216 208 208 206 205 206 207 207 207 211 210 211 212 212 212 216 217 219 220 223 225 229 234 237 237 243 247
359 1 3 4 5 7 11 16 21 23 23 26 24 26 31 29 17 253 225 213 208 208 206 206 207 207 207 209 210 210 211 213 213 215 218 220 223 225 226 228 233 239 242 246 250
354 358 1 1 3 7 9 14 18 21 22 27 27 26 28 31 36 25 243 215 211 208 208 206 207 207 206 208 210 211 212 211 213 216 218 221 224 229 230 232 235 236 242 247 250
351 358 359 0 2 3 8 10 16 19 23 24 28 30 29 31 34 40 51 204 212 207 207 208 208 207 207 207 209 210 211 211 214 217 218 220 224 230 229 233 236 240 242 247 250
346 352 360 3 3 5 5 9 12 16 20 23 25 29 32 32 36 36 43 73 193 209 206 205 206 206 207 207 207 209 211 212 214 217 218 222 225 229 230 236 239 243 246 250 254
345 347 357 2 3 4 5 5 8 12 16 21 23 25 30 34 35 39 40 45 106 195 203 203 202 203 206 206 208 209 211 213 214 216 219 224 226 228 232 236 240 244 248 252 255
345 348 348 359 1 3 2 3 5 8 13 18 21 22 26 31 34 37 41 43 47 147 187 196 199 200 202 204 205 208 210 213 214 215 219 223 224 227 233 237 241 245 249 253 257
340 338 344 349 352 357 2 1 1 5 7 16 17 21 22 26 31 35 36 39 44 53 162 187 193 197 199 202 203 205 209 212 214 216 219 224 227 229 234 239 243 247 251 256 261
342 338 341 340 345 347 355 0 359 359 2 6 15 16 20 22 25 31 35 37 39 45 70 173 189 194 197 200 202 206 209 212 215 217 220 224 230 234 236 241 245 249 254 259 263
333 335 333 340 335 341 350 352 355 356 356 359 5 12 14 22 22 26 31 36 41 42 51 112 185 193 196 199 201 205 208 211 215 219 224 228 233 241 244 245 248 252 256 261 265
326 329 319 330 335 330 335 345 350 352 351 353 357 4 10 14 24 23 28 32 37 43 46 67 169 194 196 198 201 205 209 213 218 222 228 234 238 244 250 254 255 255 258 262 265
324 325 317 315 324 327 325 333 338 347 345 348 348 355 2 9 16 24 23 30 35 39 47 53 79 185 196 199 202 207 212 217 221 227 232 238 243 248 254 259 261 260 260 262 265
317 316 315 311 313 317 321 325 331 339 343 340 343 341 350 355 4 10 25 24 30 37 42 53 75 157 196 200 203 208 215 220 225 231 236 242 247 250 256 261 265 264 265 266 268
305 310 309 312 305 310 310 319 319 321 332 333 333 336 331 337 342 351 355 14 27 25 34 43 65 125 193 205 210 214 221 226 231 237 242 248 253 255 259 265 267 268 268 270 271
295 298 299 301 302 299 303 307 306 313 319 326 322 319 322 317 322 322 326 330 341 3 28 28 53 70 133 202 217 224 230 236 240 244 248 252 256 260 262 266 268 268 270 271 271
Height
10673 10659 10640 10617 10596 10578 10561 10547 10533 10523 10518 10515 10517 10522 10530 10538 10550 10561 10576 10596 10614 10631 10647 10660 10671 10681 10693 10705 10717 10726 10735 10747 10754 10760 10765 10771 10777 10782 10787 10792 10796 10799 10801 10803 10806
10666 10651 10631 10608 10582 10563 10545 10531 10518 10506 10499 10495 10496 10498 10504 10513 10523 10536 10560 10575 10594 10611 10629 10643 10657 10667 10680 10694 10705 10716 10729 10739 10739 10748 10760 10763 10770 10775 10781 10785 10790 10793 10796 10798 10800
10658 10642 10623 10600 10572 10552 10531 10517 10505 10492 10483 10478 10476 10479 10483 10490 10499 10519 10536 10557 10577 10593 10611 10626 10642 10654 10669 10681 10695 10708 10724 10722 10733 10743 10748 10756 10762 10768 10773 10778 10784 10787 10790 10793 10795
10651 10634 10615 10593 10568 10542 10522 10505 10492 10480 10471 10464 10461 10462 10465 10471 10479 10496 10518 10537 10556 10574 10593 10610 10625 10640 10656 10673 10684 10696 10707 10712 10726 10732 10741 10748 10756 10760 10766 10772 10777 10781 10785 10787 10789
10645 10628 10610 10589 10564 10537 10515 10496 10481 10469 10459 10452 10449 10449 10450 10454 10462 10474 10492 10514 10535 10556 10574 10593 10611 10624 10641 10657 10669 10685 10694 10705 10714 10721 10732 10740 10747 10753 10759 10766 10770 10775 10779 10781 10783
10640 10625 10607 10587 10563 10537 10512 10493 10476 10462 10451 10444 10440 10438 10439 10443 10449 10459 10474 10494 10519 10540 10557 10575 10592 10612 10629 10644 10663 10673 10685 10697 10702 10713 10723 10731 10738 10745 10753 10759 10764 10768 10772 10775 10777
10637 10622 10604 10585 10563 10538 10513 10491 10475 10459 10447 10438 10433 10431 10432 10434 10440 10449 10462 10480 10502 10522 10541 10563 10581 10598 10619 10633 10644 10662 10680 10686 10694 10705 10715 10723 10730 10740 10747 10753 10758 10762 10766 10769 10771
10636 10621 10604 10585 10565 10541 10515 10492 10474 10457 10444 10436 10431 10428 10427 10430 10434 10442 10454 10467 10488 10508 10528 10549 10568 10589 10604 10627 10640 10654 10663 10675 10687 10697 10707 10717 10725 10733 10740 10746 10752 10756 10760 10762 10764
10636 10621 10605 10587 10567 10547 10523 10498 10478 10458 10446 10437 10431 10427 10426 10428 10433 10439 10448 10460 10475 10495 10516 10536 10556 10576 10597 10612 10625 10639 10658 10670 10681 10690 10702 10712 10717 10728 10733 10739 10744 10749 10752 10755 10757
10636 10622 10607 10589 10572 10553 10531 10507 10484 10466 10452 10442 10435 10429 10427 10428 10430 10436 10443 10454 10467 10485 10507 10526 10546 10564 10581 10597 10622 10642 10651 10658 10671 10684 10694 10703 10712 10719 10724 10730 10736 10742 10745 10747 10751
10636 10623 10609 10594 10577 10561 10541 10517 10495 10476 10460 10448 10440 10434 10430 10427 10429 10434 10440 10449 10461 10477 10496 10515 10534 10556 10574 10591 10601 10617 10629 10645 10659 10675 10685 10694 10702 10709 10716 10723 10729 10733 10737 10741 10743
10636 10624 10612 10597 10582 10567 10550 10531 10506 10486 10470 10458 10447 10439 10434 10431 10431 10433 10438 10446 10456 10469 10485 10505 10526 10539 10559 10579 10598 10615 10627 10641 10653 10667 10676 10684 10696 10700 10709 10715 10722 10726 10730 10732 10736
10638 10626 10613 10600 10587 10573 10557 10540 10521 10501 10485 10470 10458 10448 10440 10435 10434 10435 10438 10444 10452 10463 10478 10496 10515 10535 10553 10567 10587 10606 10618 10631 10649 10656 10668 10679 10684 10694 10703 10709 10715 10719 10722 10725 10727
10639 10628 10617 10603 10592 10579 10564 10549 10534 10517 10504 10483 10468 10457 10449 10441 10437 10437 10439 10443 10449 10460 10472 10490 10508 10528 10545 10561 10581 10597 10610 10626 10643 10647 10662 10670 10683 10687 10696 10702 10709 10713 10715 10717 10719
10641 10631 10620 10607 10596 10584 10571 10557 10543 10530 10518 10498 10481 10468 10458 10450 10444 10440 10440 10444 10450 10458 10469 10484 10500 10520 10538 10557 10575 10589 10606 10623 10630 10640 10654 10665 10674 10681 10694 10699 10702 10704 10707 10709 10710
10642 10633 10622 10612 10600 10589 10577 10565 10552 10541 10525 10512 10497 10483 10471 10460 10452 10447 10445 10447 10452 10457 10466 10480 10497 10517 10537 10553 10569 10587 10601 10614 10624 10634 10647 10657 10670 10674 10687 10689 10692 10695 10698 10698 10700
10642 10634 10625 10615 10606 10595 10583 10573 10561 10550 10539 10524 10511 10497 10485 10474 10463 10457 10453 10453 10456 10460 10466 10476 10491 10511 10530 10548 10564 10579 10593 10607 10618 10631 10649 10657 10663 10672 10682 10681 10685 10685 10687 10690 10691
10643 10635 10628 10619 10610 10600 10590 10580 10571 10559 10547 10536 10523 10511 10498 10486 10478 10469 10464 10460 10460 10462 10467 10475 10488 10504 10525 10546 10564 10578 10592 10606 10620 10634 10645 10651 10660 10668 10670 10670 10673 10675 10679 10681 10682
10643 10637 10629 10621 10613 10605 10596 10588 10579 10570 10560 10548 10537 10525 10513 10500 10489 10481 10476 10472 10469 10468 10471 10478 10489 10503 10521 10541 10559 10575 10590 10603 10616 10628 10637 10644 10651 10654 10657 10659 10663 10666 10669 10671 10673
10643 10637 10631 10624 10616 10609 10602 10593 10586 10578 10570 10561 10551 10540 10528 10516 10504 10494 10487 10483 10480 10479 10480 10485 10494 10506 10521 10540 10558 10574 10586 10600 10612 10622 10631 10638 10642 10646 10649 10651 10654 10658 10661 10663 10665
10643 10636 10631 10625 10619 10612 10606 10600 10591 10583 10578 10571 10563 10554 10543 10532 10522 10512 10503 10497 10493 10490 10492 10496 10502 10512 10525 10542 10558 10573 10586 10598 10609 10617 10625 10630 10635 10637 10642 10643 10646 10649 10652 10654 10655
10642 10636 10631 10626 10620 10614 10609 10603 10597 10589 10583 10577 10571 10565 10558 10548 10539 10529 10521 10514 10508 10506 10505 10508 10514 10520 10531 10545 10560 10573 10584 10595 10605 10613 10619 10623 10631 10630 10633 10637 10640 10643 10644 10644 10643
10639 10635 10630 10625 10620 10615 10610 10605 10600 10594 10588 10582 10577 10572 10567 10561 10553 10546 10538 10530 10525 10520 10519 10520 10523 10529 10538 10550 10563 10575 10585 10593 10602 10609 10614 10620 10623 10623 10626 10630 10632 10634 10633 10632 10628
10635 10632 10628 10624 10620 10614 10610 10606 10602 10597 10591 10586 10581 10577 10573 10570 10565 10559 10553 10547 10541 10536 10533 10533 10534 10538 10546 10556 10568 10579 10587 10594 10602 10607 10607 10613 10614 10615 10620 10622 10622 10621 10619 10616 10613
10630 10627 10623 10620 10617 10613 10608 10604 10602 10598 10593 10589 10584 10580 10577 10574 10572 10568 10564 10560 10556 10551 10548 10546 10546 10549 10555 10562 10571 10580 10587 10593 10597 10599 10605 10600 10605 10610 10609 10611 10610 10607 10605 10602 10600
10623 10621 10618 10616 10613 10609 10606 10601 10599 10596 10593 10589 10586 10582 10579 10577 10574 10573 10571 10569 10566 10563 10561 10558 10557 10559 10563 10569 10576 10582 10585 10589 10593 10595 10595 10598 10595 10600 10600 10599 10596 10593 10590 10587 10585
10614 10612 10611 10607 10606 10604 10602 10599 10595 10592 10590 10587 10584 10581 10578 10577 10575 10573 10572 10571 10571 10569 10568 10567 10567 10567 10568 10571 10575 10579 10584 10586 10587 10586 10587 10587 10585 10584 10586 10583 10581 10579 10575 10572 10568